Location: ??
(23.8961°N, 120.7807°E)
Time: 17:54:36
(UTC+00:00)

Daily predictions for brighter satellites

Satellite Brightness Start Highest point End
(mag) Time Altitude Azimuth Time Altitude Azimuth Time Altitude Azimuth
ATLAS 3B CENTAUR R/B 3.8 12:00:18 10° WSW 12:08:23 88° SSE 12:08:57 84° E
USA 267 4.4 12:19:03 37° WSW 12:19:03 37° WSW 12:24:00 10° WNW
Nadezhda 4 Rocket 4.0 20:10:35 77° E 20:10:35 77° E 20:16:34 10° S
Cosmos 1603 4.1 20:19:15 51° NNE 20:20:19 60° ENE 20:25:53 10° SSE
Cosmos 1484 Rocket 4.4 20:23:15 28° ENE 20:24:10 32° E 20:27:34 10° SSE
FALCON 9 R/B 3.7 20:26:47 37° NNW 20:28:45 43° NNE 20:47:14 10° E
Cosmos 1703 Rocket 4.0 20:29:49 59° E 20:29:49 59° E 20:34:02 10° SSE
Delta 202 4.3 20:30:52 39° SSW 20:31:50 43° S 20:36:48 10° ESE
Cosmos 332 Rocket 4.2 20:31:58 10° S 20:36:48 64° ESE 20:41:39 10° NNE
CZ-4C R/B 3.3 20:37:29 45° W 20:38:38 48° WSW 20:46:38 10° S
Cosmos 1634 Rocket 3.9 20:41:00 10° SSW 20:47:08 63° W 20:53:14 10° N
Meteor 1-14 Rocket 4.2 20:41:34 10° SSW 20:47:25 67° W 20:53:23 10° N
Cosmos 1331 Rocket 3.8 20:43:20 10° SSW 20:48:28 84° WNW 20:53:38 10° NNE
STARLINK 1044 4.4 20:49:30 34° ESE 20:49:30 34° ESE 20:51:23 10° SE
NOSS 3-2 (C) 3.8 20:43:25 10° S 20:48:46 56° ESE 20:54:31 10° NE
PSLV R/B 4.0 20:45:13 10° NNE 20:49:19 76° E 20:53:22 10° S
Okean 1-7 2.9 20:53:15 52° NNW 20:54:15 78° W 20:58:35 10° S
Okean O Rocket 3.5 20:50:54 10° NE 20:54:52 32° E 20:58:49 10° SSE
Cosmos 371 Rocket 3.3 20:51:22 10° SSW 20:56:05 56° WNW 21:00:51 10° N
USA 234 4.0 20:50:40 10° NNE 20:55:56 30° NW 20:55:56 30° NW
SJ-12 4.2 20:52:50 10° NNE 20:56:54 68° E 21:00:56 10° S
Hubble Space Telescope 0.6 20:57:42 68° WNW 20:58:06 76° NNW 21:02:14 10° ENE
FENGYUN 3A 4.2 20:53:10 10° NNE 20:58:28 58° ESE 21:03:43 10° S
GPS 2-15 Rocket1 4.1 20:57:32 31° SW 20:59:01 38° S 21:03:36 10° ESE
Cosmos 1844 Rocket 2.5 20:56:25 10° SSW 21:01:58 70° WNW 21:07:32 10° NNE
ATLAS 2AS CENTAUR RB 4.3 20:59:52 10° SSW 21:04:38 31° SSE 21:25:33 10° E
Star 48B S/N 10042-17 4.3 21:04:56 64° NW 21:05:15 75° N 21:07:49 10° E
Cosmos 1110 Rocket 4.1 21:01:06 10° SW 21:06:04 46° WNW 21:11:01 10° N
MOS 1-B 4.2 21:01:08 10° NNE 21:06:55 85° WNW 21:12:41 10° SSW
ALOS 2.4 21:02:28 10° NNE 21:07:08 76° ESE 21:11:47 10° S
STARLINK 1050 3.4 21:06:56 42° NNW 21:08:01 70° NE 21:11:41 10° SE
Cosmos 2195 Rocket 4.5 21:03:26 10° NNW 21:09:40 64° W 21:15:50 10° S
CZ-4B DEB 4.2 21:04:45 10° NNE 21:10:19 89° ESE 21:15:53 10° SSW
Cosmos 1627 Rocket 4.4 21:04:54 10° N 21:11:10 70° W 21:17:30 10° S
STARLINK 1055 3.3 21:10:25 40° NNW 21:11:38 78° NE 21:15:18 10° SE
Cosmos 1844 3.6 21:08:21 10° SSW 21:14:07 71° WNW 21:19:53 10° NNE
STARLINK 1022 3.2 21:14:08 37° NW 21:15:29 87° NE 21:19:10 10° SE
STARLINK 1042 3.2 21:17:19 34° NW 21:18:47 84° SW 21:22:28 10° SE
Okean 3 4.2 21:15:11 10° N 21:19:17 53° E 21:23:26 10° SSE
CZ-3 R/B 4.4 21:13:08 10° SSW 21:21:45 18° S 21:26:12 10° SE
STARLINK 1056 3.2 21:20:50 31° NW 21:22:26 76° SW 21:26:08 10° SSE
Cosmos 1092 Rocket 4.4 21:18:52 14° NNW 21:23:29 36° W 21:29:00 10° SSW
STARLINK 1054 3.3 21:24:22 28° NW 21:26:08 67° SW 21:29:47 10° SSE
OE (NEXTSAT) 4.3 21:24:50 29° NW 21:26:30 89° SW 21:30:00 10° SE
Cosmos 1666 4.4 21:25:27 10° SSE 21:28:56 35° E 21:32:24 10° NNE
STARLINK 1062 3.4 21:27:48 26° NW 21:29:41 60° SW 21:33:20 10° SSE
CZ-4B R/B 3.3 21:24:27 10° NNE 21:30:08 86° ESE 21:35:47 10° SSW
Cosmos 1655 Rocket 4.3 21:25:39 10° N 21:31:50 71° E 21:38:03 10° SSE
STARLINK 1053 3.5 21:31:29 23° WNW 21:33:31 53° SW 21:37:07 10° SSE
NOSS 3-2 (A) 4.0 21:31:01 10° WSW 21:35:50 30° WNW 21:41:03 10° N
Cosmos 1943 3.9 21:32:47 16° NW 21:36:22 32° WSW 21:41:18 10° SSW
STARLINK 1061 3.7 21:34:49 21° WNW 21:36:59 48° SW 21:40:33 10° SSE
Cosmos 1908 Rocket 4.5 21:34:29 10° S 21:38:50 53° E 21:43:10 10° NNE
STARLINK 1067 3.8 21:38:22 19° WNW 21:40:39 43° SW 21:44:11 10° SSE
Helios 1A Rocket 2.8 21:36:53 10° N 21:40:52 67° WNW 21:44:51 10° SSW
Cosmos 44 Rocket 4.0 21:37:29 10° SW 21:41:51 31° WNW 21:46:10 10° N
STARLINK 1058 4.0 21:41:52 17° WNW 21:44:17 38° SW 21:47:45 10° SSE
CENTAUR R/B 2.3 21:39:20 10° SW 21:44:46 65° WNW 21:51:01 10° NNE
STARLINK 1043 4.1 21:45:24 15° WNW 21:47:57 34° SW 21:51:21 10° SSE
Cosmos 304 Rocket 4.3 21:43:41 10° SW 21:48:04 36° WNW 21:52:27 10° N
COSMO-SKYMED 1 2.8 21:43:56 10° S 21:48:07 48° W 21:52:18 10° NNW
Meteor 1-13 Rocket 4.5 21:44:44 10° N 21:50:20 75° E 21:56:02 10° SSE
STARLINK 1065 4.3 21:48:54 14° WNW 21:51:35 31° SW 21:54:53 10° S
ATLAS 2A CENTAUR R/B 4.1 21:34:39 10° WSW 21:54:25 79° SSE 21:58:37 10° E
STARLINK 1063 4.5 21:52:31 12° WNW 21:55:20 28° SW 21:58:33 10° S
ASTRO E2 3.4 21:51:58 10° SW 21:55:52 54° SSE 21:59:45 10° ENE
Cosmos 1733 Rocket 4.0 21:53:42 10° SW 21:57:16 25° W 22:00:51 10° NNW
ERBS 2.1 21:55:49 10° SW 21:59:07 75° NW 22:02:24 10° NNE
Delta 198 4.3 21:55:14 10° W 21:59:33 39° SSW 22:03:17 10° SE
Cosmos 2266 Rocket 4.1 21:55:26 10° N 22:01:34 83° E 22:07:35 10° S
Meteor 1-11 Rocket 4.3 22:04:00 10° SW 22:09:12 36° W 22:14:33 10° NNW
Cosmos 1743 3.9 22:06:32 10° SSE 22:10:11 48° E 22:13:51 10° NNE
